Regional Weather Roundup
Issued by NWS Charleston, SC

Current Version | Previous Version | Text Only | Print | Product List | Glossary Off
Versions: 1 2 3 4 5 6 7 8 9 10 11 12 13 14 15 16 17 18 19 20 21 22 23 24 25 26 27 28 29 30 31 32 33 34 35 36 37 38 39 40 41 42 43 44 45 46 47 48 49 50

000
ASUS42 KCHS 030727
RWRCHS

REGIONAL WEATHER ROUNDUP
NATIONAL WEATHER SERVICE CHARLESTON SC
300 AM EDT MON AUG 03 2015

NOTE: "FAIR" INDICATES FEW OR NO CLOUDS BELOW 12,000 FEET WITH NO
SIGNIFICANT WEATHER AND/OR OBSTRUCTIONS TO VISIBILITY.

NOT ALL STATIONS ARE QUALITY CONTROLLED BY THE NATIONAL
WEATHER SERVICE. USE DATA WITH CAUTION...ESPECIALLY
DEWPOINT OBSERVATIONS.

SCZ027-030-031-034>040-042>050-030800-
...SOUTHEAST SOUTH CAROLINA...

CITY           SKY/WX    TMP DP  RH WIND       PRES   REMARKS
N CHARLESTON   LGT RAIN  76  73  91 CALM      29.89F
WATERFRONT PRK   N/A     80  76  87 S7        29.87F
MOUNT PLEASANT LGT RAIN  75  75 100 S3        29.89F
JOHNS ISLAND   FAIR      79  75  89 S8        29.89S
PINOPOLIS      NOT AVBL
MONCKS CORNER  FAIR      75  72  88 CALM      29.89F
SUMMERVILLE    LGT RAIN  73  73 100 CALM      29.90S
BEAUFORT MCAS  PTCLDY    78  76  93 S3        29.88F
BEAUFORT ARPT  FAIR      77  77 100 CALM      29.87F FOG
HILTON HEAD IS PTCLDY    79  75  89 S6        29.88F
WALTERBORO     CLOUDY    77  73  88 CALM      29.89F
ALLENDALE      PTSUNNY   75  73  94 CALM      29.87F

...SOUTHERN MIDLANDS AND PEE DEE...

CITY           SKY/WX    TMP DP  RH WIND       PRES   REMARKS
GEORGETOWN     NOT AVBL
KINGSTREE      NOT AVBL
ORANGEBURG     PTCLDY    74  71  91 SE3       29.90F
BARNWELL       FAIR      75  73  94 CALM      29.89F
AIKEN          FAIR      72  70  94 SE3       29.93S
MANNING        RAIN      72  72 100 CALM      29.90F
COLUMBIA       MOCLDY    75  70  84 E5        29.89F
SUMTER         MOCLDY    72  69  90 NE3       29.89S
FLORENCE       CLOUDY    75  73  93 S3        29.91F
MYRTLE BEACH   MOCLDY    79  72  78 SW7       29.93S
N MYRTLE BEACH CLOUDY    80  73  79 SW15      29.91F

$$

GAZ063-065-086>088-099>101-113>116-118-119-134>141-150-030800-
...SOUTHEAST GEORGIA...

CITY           SKY/WX    TMP DP  RH WIND       PRES   REMARKS
SAVANNAH ARPT  CLOUDY    77  73  88 S7        29.87F
HUNTER AAF     MOCLDY    77  77 100 S1        29.85S
FORT STEWART   NOT AVBL
STATESBORO     MOCLDY    75  32  21 CALM      29.87S
SYLVANIA       MOSUNNY   75  75  99 CALM      29.89R
CLAXTON        NOT AVBL

...CSRA...CENTRAL AND FAR SOUTHEAST GEORGIA...

CITY           SKY/WX    TMP DP  RH WIND       PRES   REMARKS
THOMSON        MOCLDY    73  73 100 CALM      29.94R
AUGUSTA-BUSH   PTCLDY    73  72  96 SE3       29.87F
AUGUSTA-DANIEL PTCLDY    76  73  91 SE6       29.89F
SWAINSBORO     FAIR     N/A N/A N/A E3        29.88S
VIDALIA        CLOUDY    75  73  94 SE3       29.87S FOG
EASTMAN        CLOUDY    76  76 100 E3        29.89S
HAZLEHURST     CLOUDY    77  77 100 CALM      29.85S FOG
ALMA           CLOUDY    76  73  91 E7        29.85F
WAYCROSS       CLOUDY    79  76  90 SE5       29.84S
JESUP          CLOUDY    81  75  83 S3        29.85F
BAXLEY         CLOUDY    77  75  94 CALM      29.85F
BRUNSWICK      MOCLDY    79  73  83 S8        29.86F
SAINT SIMONS   MOCLDY    80  73  79 S9G18     29.86F

$$

SCZ027-028-034-036>038-045-046-048>050-GAZ119-141-030800-
...LAKE AND SUPPLEMENTAL COASTAL OBSERVATIONS...

STATION/POSITION TIME  TEMP    WIND        PRES    WAVE   SWELL
                       AIR SEA DIR/SP/G            HT/PER HT/PER/DIR
                 (UTC) (F)     (DEG/KT/KT) (MB)    (FT/S) (FT/S/D)
UPR LAKE MARION  NOT AVBL
WINYAH BAY       0645   75     200/  9     1012.0S
LAKE MURRAY      0700   78     110/  3/  5 1011.9S
ACE BASIN NERRS  NOT AVBL
FORT PULASKI     0700   80 86  170/  6/ 11 1012.0F
SAPELO ISLAND    0600   80     170/ 16     1011.0F

$$

ANZ835-935-AMZ111-154-330-350-352-354-370-450-454-472-030800-
...C-MAN AND BUOY OBSERVATIONS...

STATION/POSITION TIME  TEMP    WIND        PRES    WAVE   SWELL
                       AIR SEA DIR/SP/G            HT/PER HT/PER/DIR
                 (UTC) (F)     (DEG/KT/KT) (MB)    (FT/S) (FT/S/D)
BUOY 41004       0650   83 83  190/ 17/ 21 1011.5F   6/ 7   2/11
BUOY 41008       0650   81 83  180/ 19/ 23 1011.3F   6/ 7
FOLLY BEACH CMAN 0700   81     200/ 17/ 21 1011.9F
CAPERS NEARSHORE 0608   83     220/ 19/ 25 1013.0F
FRIPP NEARSHORE  0600   82     190/ 17/ 21 1011.8F


STATION/POSITION TIME  TEMP    WIND        PRES    WAVE   SWELL
                       AIR SEA DIR/SP/G            HT/PER HT/PER/DIR
                 (UTC) (F)     (DEG/KT/KT) (MB)    (FT/S) (FT/S/D)
5E ST. MARYS GA  0621      82                N/A     5/ 6   2/110/12
FRYING PAN BUOY  0650   83 83  200/ 17/ 21 1013.6F   7/ 7   2/170/11
BUOY 41025       0650   76 84  210/ 12/ 16 1014.4R   4/ 4   2/150/11
CAPE LOOKOUT NC  0700   76     240/ 14/ 19 1012.9F
BUOY 41002       0650   82 81  200/ 16/ 19 1015.7F   5/ 6   2/110/11
BUOY 41010       0620   83 84  160/ 16/ 19 1014.4F
ST AUGUSTINE FL  0700   77 79  180/ 12/ 15 1011.5F


$$


USA.gov is the U.S. government's official web portal to all federal, state and local government web resources and services.